Location: Borbetomagus
(49.6328°N, 8.3592°E)
Time: 16:51:22
(UTC+00:00)

Cosmos 2366 rocket - Pass Details

Date: 19 May 2025
Orbit: 954 x 996 km, 82.9° (Epoch: 17 June)

Event Time Altitude Azimuth Distance (km) Brightness Sun altitude
Rises 21:07:13 0° 349° (NNW) 3,728 8.4 -14.2°
Reaches altitude 10° 21:09:46 10° 348° (NNW) 2,775 7.6 -14.4°
Maximum altitude 21:16:07 75° 264° (W) 1,032 4.2 -14.9°
Enters shadow 21:21:11 17° 182° (S) 2,296 5.5 -15.3°
